weather.gov     
National Weather Service

Regional Weather Roundup
NWS Homepage
This page is being discontinued on March 12, 2014.
The same data is available at this site. Please update your bookmarks.
Thank you, and we apologize for the inconvenience.
Please send an email to SR-SRH.Webmaster@noaa.gov with any concerns.


Current Version
Previous Version:    01  02  03  04  05  06  07  08  09  10  11  12  13  14  15  16  17  18  19  20  21  22  23  24  25  26  27  28  29  30  
   31  32  33  34  35  36  37  38  39  40  41  42  43  44  45  46  47  48  49  50  51  52  53  54  55  56  57  58  59  60  
[Printable]
216
ASUS44 KFWD 201115
RWRTX
NORTH TEXAS HOURLY WEATHER ROUNDUP
NATIONAL WEATHER SERVICE FORT WORTH TX
500 AM CST SAT DEC 20 2014

NOTE: "FAIR" INDICATES FEW OR NO CLOUDS BELOW 12,000 FEET WITH NO
SIGNIFICANT WEATHER AND/OR OBSTRUCTIONS TO VISIBILITY.

TXZ118-119-201200-
DALLAS/FORT WORTH METROPLEX

CITY           SKY/WX    TMP DP  RH WIND       PRES   REMARKS
DFW AIRPORT    CLOUDY    46  42  86 N9        30.20F
DALLAS LOVE    CLOUDY    46  42  86 N8        30.21F FOG
FTW MEACHAM    CLOUDY    46  41  82 N6        30.21S HAZE
DAL-EXECUTIVE  CLOUDY    47  43  86 NE5       30.20S
FTW-ALLIANCE   CLOUDY    45  41  86 N7        30.21S
FTW-SPINKS     CLOUDY    46  42  87 NW8       30.22S
ARLINGTON      CLOUDY    47  41  80 N5        30.21F
GRAND PRAIRIE  CLOUDY    46  44  93 N5        30.23S
LANCASTER      CLOUDY    46  43  89 N6        30.22S FOG
$$

TXZ091>094-102>105-117-120-121-131>134-201200-
NORTH CENTRAL TEXAS

CITY           SKY/WX    TMP DP  RH WIND       PRES   REMARKS
SHRMAN/DENISON CLOUDY    43  41  93 CALM      30.22F
GAINESVILLE    CLOUDY    42  39  88 N5        30.23F WCI  39
BOWIE          CLOUDY    42  38  88 CALM      30.21S
BRIDGEPORT     CLOUDY    44  41  88 CALM      30.24S
DECATUR        CLOUDY    42  41  97 NW3       30.21S FOG
DENTON         CLOUDY    44  41  89 N6        30.22S
MCKINNEY       CLOUDY    45  42  89 N6        30.22R
GREENVILLE     CLOUDY    45  43  93 CALM      30.22S
ROCKWALL       CLOUDY    44  44 100 N3        30.20S FOG
TERRELL        CLOUDY    48  44  86 N6        30.21F
WAXAHACHIE     CLOUDY    46  46  99 N5        30.21F
CLEBURNE       CLOUDY    45  45 100 N8        30.21F
GRANBURY       CLOUDY    47  42  82 CALM      30.23S
$$

TXZ083>090-098>101-113>116-127>130-139>142-154-155-201200-
WESTERN NORTH TEXAS

CITY           SKY/WX    TMP DP  RH WIND       PRES   REMARKS
WICHITA FALLS  CLOUDY    43  39  86 MISG      30.20F
WF-KICKAPOO    CLOUDY    44  38  79 CALM      30.22F
VERNON         CLOUDY    44  37  78 SW3       30.21F
ABILENE        CLOUDY    45  38  76 CALM      30.19S
ABILENE-DYESS  CLOUDY    44  37  74 W2        30.18F
BRECKENRIDGE   CLOUDY    46  41  85 NE5       30.20S
GRAHAM         CLOUDY    44  40  86 CALM      30.20S
MINERAL WELLS  CLOUDY    44  40  85 NW6       30.20F
STEPHENVILLE   CLOUDY    44  41  89 NE3       30.21F
COMANCHE       CLOUDY    45  45 100 CALM      30.19S
BROWNWOOD      CLOUDY    46  43  87 CALM      30.20R
COLEMAN        CLOUDY    46  44  94 CALM      30.19S
BRADY          CLOUDY    45  43  93 CALM      30.16F
$$

TXZ143>147-156>162-174-175-201200-
CENTRAL TEXAS

CITY           SKY/WX    TMP DP  RH WIND       PRES   REMARKS
WACO           CLOUDY    48  45  89 NW7       30.21S
WACO-MCGREGOR  CLOUDY    46  43  87 N7        30.21F
HILLSBORO      CLOUDY    47  44  90 NW8       30.20S FOG
CORSICANA      CLOUDY    48  44  86 N8        30.20F
MEXIA          CLOUDY    46  45  95 N3        30.19S
HEARNE         CLOUDY    48  46  93 CALM      30.20R
CAMERON        CLOUDY    49  47  95 N5        30.19S
TEMPLE         CLOUDY    46  41  81 N9        30.18F
KILLEEN        CLOUDY    46  44  93 N7        30.19F
KILLEEN-SKYLRK CLOUDY    46  39  76 N6        30.16S
FORT HOOD      CLOUDY    46  44  92 N8        30.18F
GATESVILLE     CLOUDY    46  45  93 CALM      30.22F
HAMILTON       CLOUDY    46  46 100 E3        30.20S
$$

TXZ095>097-106>112-122>126-135>138-148>153-164>167-201200-
EAST TEXAS

CITY           SKY/WX    TMP DP  RH WIND       PRES   REMARKS
PARIS          CLOUDY    45  39  81 E3        30.23S
SULPHUR SPRNGS CLOUDY    46  44  93 NE3       30.24R FOG
MOUNT PLEASANT CLOUDY    45  44  97 CALM      30.23S
MINEOLA        CLOUDY    46  46 100 CALM      30.21F FOG
TYLER          CLOUDY    47  44  90 NE8       30.18F
LONGVIEW       CLOUDY    47  43  86 NE7       30.19S
MARSHALL       CLOUDY    48  46  91 CALM      30.22R
ATHENS         CLOUDY    45  43  93 N6        30.18S FOG
PALESTINE      CLOUDY    48  47  97 CALM      30.20R
JACKSONVILLE   FOG       46  46  99 N6        30.18S VSB 3/4
HENDERSON      CLOUDY    46  46 100 NE6       30.19F
NACOGDOCHES    CLOUDY    46  43  87 N3        30.18S
LUFKIN         CLOUDY    50  46  86 N3        30.17R
$$

SUPPLEMENTAL OBSERVATIONS (CENTRAL)

CITY           SKY/WX    TMP DP  RH WIND       PRES   REMARKS
LAKE TEXOMA      N/A     43  39  87 NE3         N/A
CADDO GRASSLND   N/A     43  41  93 N3          N/A
PAT MAYSE LAKE   N/A     43  41  93 CALM        N/A
GREENVILLE       N/A     45  41  87 N3          N/A
ATHENS           N/A     46  43  87 N3          N/A
PALESTINE        N/A     46  43  87 N5          N/A
LAKE LIMESTONE   N/A     48  45  87 N6          N/A
MCGREGOR         N/A     46  43  87 N6          N/A
TEMPLE           N/A     48  43  81 N1          N/A
$$

SUPPLEMENTAL OBSERVATIONS (WEST)

CITY           SKY/WX    TMP DP  RH WIND       PRES   REMARKS
MILLERS CREEK    N/A     43  39  87 E1          N/A
POSSUM KINGDOM   N/A     43  39  87 VRB2        N/A
LBJ GRASSLAND    N/A     43  37  81 NW3         N/A
GRANBURY         N/A     45  39  81 N3          N/A
COMANCHE         N/A     45  43  93 NE3         N/A
HAMBY            N/A     45  37  76 N1          N/A
IVIE RESERVOIR   N/A     46  41  81 NE2         N/A
COLORADO BEND    N/A     45  39  81 CALM        N/A
$$

SUPPLEMENTAL OBSERVATIONS (EAST)

CITY           SKY/WX    TMP DP  RH WIND       PRES   REMARKS
CLARKSVILLE      N/A     45  43  93 E2          N/A
TEXARKANA        N/A     45  41  87 E1          N/A
LINDEN           N/A     43  39  87 E1          N/A
CADDO LAKE       N/A     45  41  87 N2          N/A
GILMER           N/A     45  39  81 NE3         N/A
HENDERSON        N/A     46  41  81 NE8         N/A
LUFKIN           N/A     48  43  81 MISG        N/A
N SABINE NF      N/A     46  45  93 MISG        N/A
S SABINE NF      N/A     46  43  87 NE3         N/A
$$

SUPPLEMENTAL OBSERVATIONS ARE A COLLECTION OF AUTOMATED INSTRUMENTS
THAT ARE MAINTAINED BY A VARIETY OF FEDERAL AND STATE AGENCIES.
CERTAIN ELEMENTS...SUCH AS HUMIDITY VALUES AND SUSTAINED WIND
SPEEDS...MAY BE APPROXIMATED.





U.S. Dept. of Commerce
NOAA National Weather Service
1325 East West Highway
Silver Spring, MD 20910
E-mail: w-nws.webmaster@noaa.gov
Page last modified: May 16, 2007
NATIONAL WEATHER SERVICE: for Safety, for Work, for Fun - FOR LIFE